Location: Kelshall
(52.0000°N, 0.0500°W)
Time: 13:05:08
(UTC+00:00)

Meteor 2-11 Rocket - Pass Details

Date: 18 September 2020
Orbit: 939 x 957 km, 82.5° (Epoch: 25 October)

Event Time Altitude Azimuth Distance (km) Brightness Sun altitude
Rises 18:45:09 0° 181° (S) 3,621 7.4 -6.7°
Reaches altitude 10° 18:47:38 10° 180° (S) 2,681 6.7 -7.0°
Maximum altitude 18:53:45 74° 97° (E) 1,001 4.4 -8.0°
Drops below altitude 10° 18:59:55 10° 14° (NNE) 2,702 6.8 -8.9°
Sets 19:02:26 0° 13° (NNE) 3,651 7.5 -9.3°
